Hourly Data Report for October 14, 2015

All times are specified in Local Standard Time (LST). Add 1 hour to adjust for Daylight Saving Time where and when it is observed.

IQALUIT CLIMATE
NUNAVUT

63°44'50.000" N
68°32'40.000" W
33.50 m
2402592
71321
XFB

Download Data

Hourly Data (October 2015)
Hourly Data Report for October 14, 2015
Temp Definition
°C
Dew Point Temp Definition
°C
Rel Hum Definition
%
Wind Dir Definition
10's deg

Wind Spd Definition
km/h
Visibility Definition
km
Stn Press Definition
kPa
Hmdx Definition


Wind Chill Definition


Weather Definition


TIME
00:00 -3.4 -4.1 95 34 3   99.52   -5 LegendNANA
01:00 -3.1 -5.2 86 32 5   99.50   -5 LegendNANA
02:00 -4.3 -6.0 88 31 11   99.50   -9 LegendNANA
03:00 -4.2 -5.7 89 33 9   99.48   -8 LegendNANA
04:00 -3.9 -5.3 90 31 7   99.50   -7 LegendNANA
05:00 -4.7 -7.3 82 32 17   99.54   -11 LegendNANA
06:00 -5.9 -7.8 86 33 24   99.58   -13 LegendNANA
07:00 -5.1 -7.0 86 34 24   99.61   -12 LegendNANA
08:00 -4.8 -7.4 82 33 21   99.60   -11 LegendNANA
09:00 -5.4 -8.0 82 33 24   99.63   -13 LegendNANA
10:00 -5.1 -7.7 82 33 22   99.62   -12 LegendNANA
11:00 -5.4 -9.1 76 33 30   99.61   -14 LegendNANA
12:00 -5.3 -8.7 77 33 27   99.62   -13 LegendNANA
13:00 -5.6 -9.7 73 33 34   99.59   -14 LegendNANA
14:00 -5.7 -10.1 71 33 30   99.57   -14 LegendNANA
15:00 -6.1 -10.4 72 33 30   99.60   -14 LegendNANA
16:00 -7.1 -10.6 76 32 19   99.63   -14 LegendNANA
17:00 -7.1 -11.3 72 33 23   99.65   -15 LegendNANA
18:00 -6.7 -10.8 73 31 13   99.66   -12 LegendNANA
19:00 -6.7 -10.3 76 30 7   99.65   -10 LegendNANA
20:00 -5.8 -10.2 71 34 12   99.64   -11 LegendNANA
21:00 -5.6 -9.8 72 31 9   99.62   -10 LegendNANA
22:00 -5.7 -9.4 75 33 15   99.61   -11 LegendNANA
23:00 -6.0 -10.0 73 32 19   99.60   -13 LegendNANA

Notes on Data Quality.

Legend

  • E = Estimated
  • M = Missing
  • NA = Not Available
  • ‡ = Partner data that is not subject to review by the National Climate Archives
Date modified: